Location: Unspecified
(41.1637°N, 24.2901°E)
Time: 08:55:23
(UTC+01:00)

ISS - Pass Details

Date: 25 October 2020
Orbit: 417 x 420 km, 51.6° (Epoch: 29 October)

Event Time Altitude Azimuth Distance (km) Brightness Sun altitude
Exits shadow 04:19:30 38° 230° (SW) 646 -3.2 -16.9°
Maximum altitude 04:20:39 87° 145° (SE) 422 -3.8 -16.7°
Drops below altitude 10° 04:24:00 10° 55° (NE) 1,496 -0.2 -16.0°
Sets 04:26:06 0° 55° (NE) 2,363 0.9 -15.7°
